www.pogodaiklimat.ru

Погода и климат >> Архив погоды >> Индонезия >> Медан Полония


ПОГОДА в Медан Полония

  • Прогноз погоды в Медан Полония
  • Монитор погоды в Медан Полония

АРХИВ ПОГОДЫ в Медан Полония

Время (UTC), дата Ветер
(напр.,м/с)
 
Видим.   Явления Облачность Т
(С)
Тd
(С)
f
(%)
Тe
(С)
Тes
(С)
Комфортность P
(гПа)
Po
(гПа)
Тmin
(С)
Tmax
(С)
R
(мм)
R24
(мм)
S
(см)
00 18.06 Ю 2 2500 м дымка 9/4 540 м
[Sc Ac As Cs]
+25.7 +25.6 99 +37 +38 очень
душно
1009.5 1008.5 +24.8
03 18.06 З 1 8000 м 9/4 540 м
[Sc Ac As Cs]
+29.1 +26.3 85 +44 +50 опасность
перегрева
1010.3 1009.3
06 18.06 С 5 10 км 8/3 540 м
[Cu hum Ac As Cs]
+32.2 +26.4 72 +49 +54 опасность
перегрева
1008.8 1007.8
09 18.06 СВ 4 10 км 6/3 540 м
[Cu med, cong Ac trans Cs]
+31.2 +25.3 71 +45 +48 опасность
перегрева
1006.8 1005.7
12 18.06 ЮВ 2 10 км 10/5 500 м
[Cb cap Ac As Cs]
+28.9 +26.8 88 +45 +45 опасность
перегрева
1008.4 1007.4 +32.3
15 18.06 ЮЗ 2 10 км 9/4 540 м
[Sc Ac As Cs]
+26.1 +23.3 85 +35 +35 очень
душно
1009.6 1008.5
18 18.06 З 2 8000 м 10/5 500 м
[Cb cap Ac As Cs]
+26.1 +24.8 93 +37 +37 очень
душно
1009.2 1008.0
21 18.06 штиль 0 7000 м 10/5 500 м
[Cb cap Ac As Cs]
+25.5 +24.6 95 +36 +36 очень
душно
1007.9 1006.9
00 19.06 Ю 3 6000 м 9/4 500 м
[Sc Ac As Cs]
+25.7 +25.0 96 +37 +37 очень
душно
1008.5 1007.6 +25.4
03 19.06 ЮВ 2 7000 м 9/3 500 м
[Sc Ac As Cs]
+29.3 +26.5 85 +45 +50 опасность
перегрева
1009.3 1008.2
06 19.06 В 4 8000 м 8/3 500 м
[Cu med, cong Ac As Cs]
+33.1 +25.5 64 +48 +53 опасность
перегрева
1007.3 1006.2
09 19.06 СВ 8 10 км 8/4 500 м
[Cb calv Ac As Cs]
+31.7 +27.1 77 +50 +51 опасность
перегрева
1005.3 1004.4
12 19.06 Ю 3 6000 м гроза без осадков 9/5 450 м
[Cb cap Ac As Cs]
+24.7 +23.5 93 +33 +33 очень
душно
1008.1 1006.9 +24.6 0.0
15 19.06 ЮВ 2 7000 м зарница {гроза} 9/5 480 м
[Cb cap Ac As Cs]
+24.6 +24.3 98 +34 +34 очень
душно
1009.1 1008.0
18 19.06 З 2 6000 м {гроза} 9/4 500 м
[Sc Ac As Cs]
+24.7 +24.4 98 +34 +34 очень
душно
1008.6 1007.6
21 19.06 штиль 0 7000 м 10/4 500 м
[Sc Ac As Cs]
+24.4 +24.3 99 +34 +34 очень
душно
1007.3 1006.4
00 20.06 ЮЗ 2 2500 м дымка 6/3 540 м
[Sc Ac trans Cs]
+24.9 +24.8 99 +35 +35 очень
душно
1008.7 1007.7 +23.9 0.0
03 20.06 СВ 3 8000 м 6/3 540 м
[Sc Ac trans Cs]
+29.0 +24.2 75 +40 +47 очень
душно
1010.9 1009.8
06 20.06 СВ 4 10 км 8/4 500 м
[Cu med, cong Ac trans Cs]
+32.1 +25.6 69 +47 +53 опасность
перегрева
1008.7 1007.8
09 20.06 СВ 4 10 км 8/4 500 м
[Cu med, cong Ac trans Cs]
+31.5 +25.5 71 +46 +48 опасность
перегрева
1006.3 1005.2
12 20.06 СВ 3 9000 м 8/4 500 м
[Cu med, cong Ac As Cs]
+28.9 +26.1 85 +44 +44 опасность
перегрева
1006.9 1005.9 +32.3
15 20.06 СВ 3 6000 м зарница 9/4 480 м
[Cb cap Ac As Cs]
+28.3 +26.5 90 +44 +44 опасность
перегрева
1009.2 1008.0
18 20.06 Ю 5 6000 м зарница 9/5 500 м
[Cb cap Ac As Cs]
+26.2 +23.2 84 +35 +35 очень
душно
1009.7 1008.6
21 20.06 Ю 2 6000 м 9/4 500 м
[Sc Ac As Cs]
+24.8 +23.3 91 +33 +33 очень
душно
1008.2 1007.1
00 21.06 ЮЗ 2 7000 м 9/3 500 м
[Sc Ac As Cs]
+24.8 +24.2 96 +34 +34 очень
душно
1009.6 1008.5 +24.3
03 21.06 ЮЗ 2 10 км 8/3 600 м
[Sc Ac As Cs]
+30.9 +24.9 70 +44 +50 опасность
перегрева
1008.9 1007.9
06 21.06 С 3 10 км 9/4 540 м
[Cu med, cong Ac trans Cs]
+31.0 +25.1 71 +45 +50 опасность
перегрева
1008.1 1007.1
09 21.06 СВ 4 10 км 9/3 600 м
[Cu med, cong Ac trans Cs]
+31.3 +25.6 72 +46 +48 опасность
перегрева
1006.4 1005.3
12 21.06 СВ 3 10 км зарница 9/4 500 м
[Cb cap Ac trans Cs]
+28.9 +26.3 86 +44 +44 опасность
перегрева
1006.9 1005.8 +32.5
15 21.06 ЮЗ 4 9000 м 10/5 500 м
[Cb cap Ac As Cs]
+27.7 +25.3 87 +40 +40 очень
душно
1009.8 1008.7
18 21.06 ЮЗ 2 9000 м в посл. час гроза {дождь} 10/5 480 м
[Cb cap Ac As Cs]
+24.0 +23.9 99 +33 +33 очень
душно
1008.8 1007.8 38
21 21.06 ЮЗ 2 8000 м 10/5 500 м
[Sc Ac As Cs]
+24.6 +24.5 99 +34 +34 очень
душно
1007.3 1006.3
00 22.06 ЮВ 2 6000 м 10/4 500 м
[Sc Ac As Cs]
+24.3 +24.2 99 +33 +34 очень
душно
1007.5 1006.4 +23.6 38
03 22.06 ЮВ 1 10 км 10/4 500 м
[Sc Ac As Cs]
+27.5 +24.7 85 +39 +44 очень
душно
1008.5 1007.5
06 22.06 В 3 10 км 9/4 500 м
[Sc Ac As Cs]
+31.1 +25.2 71 +45 +51 опасность
перегрева
1007.2 1006.1
09 22.06 СВ 3 10 км 9/4 500 м
[Cu med, cong Ac As Cs]
+30.8 +25.7 74 +45 +48 опасность
перегрева
1005.5 1004.5
12 22.06 СВ 2 10 км 9/4 500 м
[Cu med, cong Ac As Cs]
+28.3 +26.4 89 +43 +43 опасность
перегрева
1007.3 1006.2 +32.1
15 22.06 ЮЗ 4 7000 м гроза без осадков 9/5 480 м
[Cb cap Ac As Cs]
+27.5 +26.4 94 +42 +42 опасность
перегрева
1008.9 1007.9
18 22.06 З 2 9000 м в посл. час гроза 9/4 540 м
[Sc Ac As Cs]
+25.8 +24.9 95 +37 +37 очень
душно
1008.3 1007.4
21 22.06 З 2 7000 м 9/4 540 м
[Sc Ac As Cs]
+25.6 +25.0 96 +36 +36 очень
душно
1006.7 1005.7
00 23.06 Ю 3 4000 м дымка 9/4 540 м
[Sc Ac As Cs]
+25.6 +25.3 98 +37 +37 очень
душно
1007.9 1006.8 +24.3
03 23.06 ЮВ 4 10 км 6/3 540 м
[Sc Ac trans Cs]
+30.1 +24.1 70 +42 +47 опасность
перегрева
1008.0 1007.1
06 23.06 В 3 10 км 6/3 500 м
[Sc Ac trans Cs]
+33.2 +23.2 56 +44 +53 опасность
перегрева
1006.1 1005.2
09 23.06 СВ 5 10 км 9/4 500 м
[Cu med, cong Ac As Cs]
+30.2 +25.7 77 +45 +46 опасность
перегрева
1004.8 1003.8
12 23.06 ЮВ 3 10 км зарница 10/5 480 м
[Cb cap Ac As Cs]
+28.7 +26.6 88 +44 +44 опасность
перегрева
1006.8 1005.7 +33.9
15 23.06 ЮВ 2 8000 м гроза без осадков 10/5 480 м
[Cb cap Ac As Cs]
+25.1 +25.0 99 +36 +36 очень
душно
1008.7 1007.7 0.1
18 23.06 ЮЗ 2 4500 м мгла {гроза, дождь} 10/5 480 м
[Cb cap Ac As Cs]
+25.1 +25.0 99 +36 +36 очень
душно
1009.0 1007.9 0.8
21 23.06 ЮЗ 2 6000 м 10/5 480 м
[Cu Sc Ac As Cs]
+25.3 +25.2 99 +36 +36 очень
душно
1007.9 1006.9
00 24.06 штиль 0 3000 м дымка {гроза, дождь} 9/4 500 м
[Sc Ac trans Cs]
+25.4 +25.3 99 +37 +37 очень
душно
1008.7 1007.7 +24.4 0.8
03 24.06 штиль 0 8000 м 9/4 500 м
[Sc Ac As Cs]
+28.2 +25.1 83 +41 +47 опасность
перегрева
1009.2 1008.1
06 24.06 СВ 3 10 км 9/4 500 м
[Sc Ac As Cs]
+30.5 +26.8 81 +48 +54 опасность
перегрева
1008.0 1007.0
09 24.06 СВ 3 10 км 9/4 500 м
[Cu med, cong Ac As Cs]
+30.4 +25.8 76 +45 +47 опасность
перегрева
1006.6 1005.5
12 24.06 СВ 2 9000 м 9/4 500 м
[Cu med, cong Ac trans Cs]
+28.5 +25.0 81 +41 +41 опасность
перегрева
1007.5 1006.4 +31.3
15 24.06 штиль 0 7000 м 9/4 500 м
[Sc Ac As Cs]
+26.8 +26.1 96 +40 +40 очень
душно
1009.5 1008.5
18 24.06 ЮЗ 2 3000 м дымка 9/4 500 м
[Sc Ac As Cs]
+27.2 +26.9 98 +42 +42 опасность
перегрева
1009.3 1008.2

 

Местоположение метеостанции Медан Полония (Индонезия): широта 3.57 долгота 98.68 высота над уровнем моря 25 м.

В архиве по умолчанию представлена погода в Медан Полония за последнюю неделю. Архивные данные за месяц целиком и за предыдущие месяцы, начиная с января 2011 года, Вы можете получить, выбрав интересующий диапазон дат из раскрывающегося списка и нажав кнопку "Ввод!".


*Определитесь, кто Вы:
робот инопланетянин человек

Внимание! Время в таблицах - всемирное. Для получения местного времени необходимо прибавить поправку, которая равна 7 ч.

Смотрите также архив погоды в соседних городах и на ближайших метеорологических станциях:

Погода в Белаване (Индонезия) (26 км)
Погода в Сиболге (Индонезия) (226 км)
Погода в Ситаване (Малайзия) (236 км)
Погода в Лхоксёмаве (Индонезия) (247 км)
Погода в Гунунгситоли (Индонезия) (258 км)
Погода в Пенанге (Малайзия) (260 км)
Погода на Авиабазе Баттерворт (Малайзия) (283 км)
Погода в Ипохе (Малайзия) (291 км)
Погода в Меулабохе (Индонезия) (294 км)
Погода на Нагорье Кэмерон (Малайзия) (315 км)

Пояснения к столбцам:

Ветер - указаны скорость ветра в м/с - средняя за 10 мин, порывы в срок и между сроками (в фигурных скобках) и направление, откуда дует ветер: С - северный, СВ - северо-восточный, В - восточный, ЮВ - юго-восточный, Ю - южный, ЮЗ - юго-западный, З - западный, СЗ - северо-западный.
Видимость - горизонтальная дальность видимости в метрах или километрах. При видимости от 1 до 10 км при отсутствии осадков обычно наблюдается дымка, при ухудшении видимости до 1 км и менее - туман. В сухую погоду видимость может ухудшаться дымом, пылью или мглою.
Явления - указаны атмосферные явления, наблюдавшиеся в срок или в последний час перед сроком; фигурными скобками обозначены явления, наблюдавшиеся между сроками (за 1-3 часа до срока); квадратными скобками обозначены град или гололедные отложения с указанием их диаметра в мм.
Облачность - указаны через наклонную черту общая и нижняя облачность в баллах и высота нижней границы облаков в метрах; квадратными скобками обозначены формы облаков: Ci - перистые, Cs - перисто-слоистые, Cc - перисто-кучевые, Ac - высококучевые, As - высокослоистые, Sc - слоисто-кучевые, Ns - слоисто-дождевые, Cu - кучевые, Cb - кучево-дождевые. Подробнее классификацию облаков см. в Атласе облаков (PDF).
T - Температура воздуха - температура, измеренная на высоте 2 м над землей.
Td - Температура точки росы - температура, при понижении до которой содержащийся в воздухе водяной пар достигнет насыщения.
f - Относительная влажность воздуха - влажноcть воздуха, измеренная на высоте 2 м над землей.
Te - Эффективная температура - температура, которую ощущает одетый по сезону человек в тени. Характеристика душности погоды. При расчете учитывается влияние влажности воздуха и скорости ветра на теплоощущения человека.
Tes - Эффективная температура на солнце - температура, которую ощущает человек, с поправкой на солнечный нагрев. Характеристика знойности погоды. Зависит от высоты солнца над горизонтом, облачности и скорости ветра. Ночью, в пасмурную погоду, а также при ветре 12 м/с и более поправка равна нулю.
P - Атмосферное давление - приведенное к уровню моря атмосферное давление.
Po - Атмосферное давление - измеренное на уровне метеостанции атмосферное давление.
Tmin - Минимальная температура - минимум температуры воздуха на высоте 2 м над землей.
Tmax - Максимальная температура - максимум температуры воздуха на высоте 2 м над землей.
R - Количество осадков - Количество выпавших осадков за период времени, мм. При наведении курсора мыши на число - период времени, за который выпало указанное количество осадков.
R24 - Количество осадков - Количество выпавших осадков за 24 часа, мм.
S - Снежный покров - Высота снежного покрова, см. При наведении курсора мыши на число - состояние снежного покрова и степень покрытия местности в баллах.